Location: Monfort
(47.1967°N, 0.2115°W)
Time: 12:17:11
(UTC+00:00)

USA 306 - Pass Details

Date: 24 October 2020
Orbit: 569 x 577 km, 54.0° (Epoch: 22 November)

Event Time Altitude Azimuth Distance (km) Brightness Sun altitude
Rises 17:43:08 0° 288° (WNW) 2,786 7.7 -8.5°
Reaches altitude 10° 17:45:35 10° 298° (WNW) 1,886 6.4 -8.9°
Maximum altitude 17:49:28 33° 3° (N) 986 4.0 -9.6°
Enters shadow 17:52:52 13° 65° (ENE) 1,710 4.7 -10.2°
